Datum;"Wasserstand in cm";"Stationsnummer: 0494800";"Stationsname: Wolfshagen";"Gew?sser: K�hntop";"Fehlwerte: -777"
"25.03.2024 00:00";56
"25.03.2024 00:15";56
"25.03.2024 00:30";56
"25.03.2024 00:45";56
"25.03.2024 01:00";56
"25.03.2024 01:15";56
"25.03.2024 01:30";56
"25.03.2024 01:45";56
"25.03.2024 02:00";56
"25.03.2024 02:15";56
"25.03.2024 02:30";56
"25.03.2024 02:45";56
"25.03.2024 03:00";56
"25.03.2024 03:15";56
"25.03.2024 03:30";56
"25.03.2024 03:45";57
"25.03.2024 04:00";57
"25.03.2024 04:15";57
"25.03.2024 04:30";57
"25.03.2024 04:45";57
"25.03.2024 05:00";57
"25.03.2024 05:15";57
"25.03.2024 05:30";57
"25.03.2024 05:45";57
"25.03.2024 06:00";57
"25.03.2024 06:15";58
"25.03.2024 06:30";58
"25.03.2024 06:45";58
"25.03.2024 07:00";58
"25.03.2024 07:15";58
"25.03.2024 07:30";58
"25.03.2024 07:45";58
"25.03.2024 08:00";58
"25.03.2024 08:15";58
"25.03.2024 08:30";58
"25.03.2024 08:45";58
"25.03.2024 09:00";58
"25.03.2024 09:15";58
"25.03.2024 09:30";58
"25.03.2024 09:45";58
"25.03.2024 10:00";58
"25.03.2024 10:15";58
"25.03.2024 10:30";58
"25.03.2024 10:45";58
"25.03.2024 11:00";58
"25.03.2024 11:15";58
"25.03.2024 11:30";58
"25.03.2024 11:45";58
"25.03.2024 12:00";58
"25.03.2024 12:15";58
"25.03.2024 12:30";58
"25.03.2024 12:45";58
"25.03.2024 13:00";58
"25.03.2024 13:15";58
"25.03.2024 13:30";58
"25.03.2024 13:45";58
"25.03.2024 14:00";58
"25.03.2024 14:15";58
"25.03.2024 14:30";58
"25.03.2024 14:45";58
"25.03.2024 15:00";58
"25.03.2024 15:15";58
"25.03.2024 15:30";58
"25.03.2024 15:45";58
"25.03.2024 16:00";58
"25.03.2024 16:15";58
"25.03.2024 16:30";58
"25.03.2024 16:45";58
"25.03.2024 17:00";58
"25.03.2024 17:15";58
"25.03.2024 17:30";58
"25.03.2024 17:45";58
"25.03.2024 18:00";58
"25.03.2024 18:15";58
"25.03.2024 18:30";58
"25.03.2024 18:45";58
"25.03.2024 19:00";58
"25.03.2024 19:15";58
"25.03.2024 19:30";58
"25.03.2024 19:45";58
"25.03.2024 20:00";58
"25.03.2024 20:15";58
"25.03.2024 20:30";58
"25.03.2024 20:45";58
"25.03.2024 21:00";58
"25.03.2024 21:15";58
"25.03.2024 21:30";58
"25.03.2024 21:45";58
"25.03.2024 22:00";58
"25.03.2024 22:15";58
"25.03.2024 22:30";58
"25.03.2024 22:45";57
"25.03.2024 23:00";58
"25.03.2024 23:15";58
"25.03.2024 23:30";58
"25.03.2024 23:45";57
"26.03.2024 00:00";57
"26.03.2024 00:15";57
"26.03.2024 00:30";57
"26.03.2024 00:45";57
"26.03.2024 01:00";57
"26.03.2024 01:15";57
"26.03.2024 01:30";57
"26.03.2024 01:45";57
"26.03.2024 02:00";57
"26.03.2024 02:15";57
"26.03.2024 02:30";57
"26.03.2024 02:45";57
"26.03.2024 03:00";57
"26.03.2024 03:15";57
"26.03.2024 03:30";57
"26.03.2024 03:45";57
"26.03.2024 04:00";57
"26.03.2024 04:15";57
"26.03.2024 04:30";57
"26.03.2024 04:45";57
"26.03.2024 05:00";57
"26.03.2024 05:15";57
"26.03.2024 05:30";57
"26.03.2024 05:45";57
"26.03.2024 06:00";57
"26.03.2024 06:15";57
"26.03.2024 06:30";57
"26.03.2024 06:45";57
"26.03.2024 07:00";57
"26.03.2024 07:15";57
"26.03.2024 07:30";56
"26.03.2024 07:45";56
"26.03.2024 08:00";56
"26.03.2024 08:15";56
"26.03.2024 08:30";56
"26.03.2024 08:45";56
"26.03.2024 09:00";56
"26.03.2024 09:15";56
"26.03.2024 09:30";56
"26.03.2024 09:45";56
"26.03.2024 10:00";56
"26.03.2024 10:15";56
"26.03.2024 10:30";56
"26.03.2024 10:45";56
"26.03.2024 11:00";56
"26.03.2024 11:15";56
"26.03.2024 11:30";56
"26.03.2024 11:45";56
"26.03.2024 12:00";56
"26.03.2024 12:15";55
"26.03.2024 12:30";55
"26.03.2024 12:45";55
"26.03.2024 13:00";55
"26.03.2024 13:15";55
"26.03.2024 13:30";55
"26.03.2024 13:45";55
"26.03.2024 14:00";55
"26.03.2024 14:15";55
"26.03.2024 14:30";55
"26.03.2024 14:45";55
"26.03.2024 15:00";55
"26.03.2024 15:15";55
"26.03.2024 15:30";55
"26.03.2024 15:45";55
"26.03.2024 16:00";55
"26.03.2024 16:15";55
"26.03.2024 16:30";55
"26.03.2024 16:45";55
"26.03.2024 17:00";55
"26.03.2024 17:15";55
"26.03.2024 17:30";55
"26.03.2024 17:45";55
"26.03.2024 18:00";55
"26.03.2024 18:15";55
"26.03.2024 18:30";55
"26.03.2024 18:45";55
"26.03.2024 19:00";55
"26.03.2024 19:15";55
"26.03.2024 19:30";55
"26.03.2024 19:45";55
"26.03.2024 20:00";55
"26.03.2024 20:15";55
"26.03.2024 20:30";55
"26.03.2024 20:45";55
"26.03.2024 21:00";55
"26.03.2024 21:15";55
"26.03.2024 21:30";55
"26.03.2024 21:45";55
"26.03.2024 22:00";55
"26.03.2024 22:15";55
"26.03.2024 22:30";55
"26.03.2024 22:45";55
"26.03.2024 23:00";55
"26.03.2024 23:15";55
"26.03.2024 23:30";55
"26.03.2024 23:45";55
"27.03.2024 00:00";55
"27.03.2024 00:15";55
"27.03.2024 00:30";55
"27.03.2024 00:45";55
"27.03.2024 01:00";55
"27.03.2024 01:15";55
"27.03.2024 01:30";55
"27.03.2024 01:45";55
"27.03.2024 02:00";55
"27.03.2024 02:15";55
"27.03.2024 02:30";55
"27.03.2024 02:45";55
"27.03.2024 03:00";55
"27.03.2024 03:15";55
"27.03.2024 03:30";55
"27.03.2024 03:45";55
"27.03.2024 04:00";55
"27.03.2024 04:15";55
"27.03.2024 04:30";55
"27.03.2024 04:45";55
"27.03.2024 05:00";55
"27.03.2024 05:15";55
"27.03.2024 05:30";55
"27.03.2024 05:45";55
"27.03.2024 06:00";55
"27.03.2024 06:15";55
"27.03.2024 06:30";55
"27.03.2024 06:45";55
"27.03.2024 07:00";55
"27.03.2024 07:15";55
"27.03.2024 07:30";55
"27.03.2024 07:45";55
"27.03.2024 08:00";55
"27.03.2024 08:15";55
"27.03.2024 08:30";55
"27.03.2024 08:45";55
"27.03.2024 09:00";55
"27.03.2024 09:15";55
"27.03.2024 09:30";55
"27.03.2024 09:45";55
"27.03.2024 10:00";55
"27.03.2024 10:15";55
"27.03.2024 10:30";55
"27.03.2024 10:45";55
"27.03.2024 11:00";55
"27.03.2024 11:15";55
"27.03.2024 11:30";55
"27.03.2024 11:45";55
"27.03.2024 12:00";55
"27.03.2024 12:15";55
"27.03.2024 12:30";55
"27.03.2024 12:45";55
"27.03.2024 13:00";55
"27.03.2024 13:15";55
"27.03.2024 13:30";55
"27.03.2024 13:45";55
"27.03.2024 14:00";55
"27.03.2024 14:15";55
"27.03.2024 14:30";55
"27.03.2024 14:45";55
"27.03.2024 15:00";55
"27.03.2024 15:15";55
"27.03.2024 15:30";55
"27.03.2024 15:45";55
"27.03.2024 16:00";55
"27.03.2024 16:15";55
"27.03.2024 16:30";55
"27.03.2024 16:45";55
"27.03.2024 17:00";55
"27.03.2024 17:15";55
"27.03.2024 17:30";55
"27.03.2024 17:45";55
"27.03.2024 18:00";55
"27.03.2024 18:15";55
"27.03.2024 18:30";55
"27.03.2024 18:45";55
"27.03.2024 19:00";55
"27.03.2024 19:15";55
"27.03.2024 19:30";55
"27.03.2024 19:45";55
"27.03.2024 20:00";55
"27.03.2024 20:15";55
"27.03.2024 20:30";55
"27.03.2024 20:45";55
"27.03.2024 21:00";55
"27.03.2024 21:15";55
"27.03.2024 21:30";55
"27.03.2024 21:45";55
"27.03.2024 22:00";55
"27.03.2024 22:15";55
"27.03.2024 22:30";55
"27.03.2024 22:45";55
"27.03.2024 23:00";55
"27.03.2024 23:15";55
"27.03.2024 23:30";55
"27.03.2024 23:45";55
"28.03.2024 00:00";55
"28.03.2024 00:15";55
"28.03.2024 00:30";55
"28.03.2024 00:45";55
"28.03.2024 01:00";55
"28.03.2024 01:15";55
"28.03.2024 01:30";55
"28.03.2024 01:45";55
"28.03.2024 02:00";55
"28.03.2024 02:15";55
"28.03.2024 02:30";55
"28.03.2024 02:45";55
"28.03.2024 03:00";55
"28.03.2024 03:15";55
"28.03.2024 03:30";55
"28.03.2024 03:45";55
"28.03.2024 04:00";55
"28.03.2024 04:15";55
"28.03.2024 04:30";55
"28.03.2024 04:45";55
"28.03.2024 05:00";55
"28.03.2024 05:15";55
"28.03.2024 05:30";55
"28.03.2024 05:45";55
"28.03.2024 06:00";55
"28.03.2024 06:15";55
"28.03.2024 06:30";55
"28.03.2024 06:45";55
"28.03.2024 07:00";55
"28.03.2024 07:15";55
"28.03.2024 07:30";55
"28.03.2024 07:45";55
"28.03.2024 08:00";55
"28.03.2024 08:15";55
"28.03.2024 08:30";55
"28.03.2024 08:45";55
"28.03.2024 09:00";55
"28.03.2024 09:15";55
"28.03.2024 09:30";55
"28.03.2024 09:45";55
"28.03.2024 10:00";55
"28.03.2024 10:15";55
"28.03.2024 10:30";55
"28.03.2024 10:45";55
"28.03.2024 11:00";55
"28.03.2024 11:15";55
"28.03.2024 11:30";56
"28.03.2024 11:45";55
"28.03.2024 12:00";56
"28.03.2024 12:15";56
"28.03.2024 12:30";56
"28.03.2024 12:45";55
"28.03.2024 13:00";56
"28.03.2024 13:15";56
"28.03.2024 13:30";56
"28.03.2024 13:45";56
"28.03.2024 14:00";56
"28.03.2024 14:15";56
"28.03.2024 14:30";56
"28.03.2024 14:45";56
"28.03.2024 15:00";56
"28.03.2024 15:15";56
"28.03.2024 15:30";56
"28.03.2024 15:45";56
"28.03.2024 16:00";56
"28.03.2024 16:15";56
"28.03.2024 16:30";56
"28.03.2024 16:45";56
"28.03.2024 17:00";56
"28.03.2024 17:15";56
"28.03.2024 17:30";56
"28.03.2024 17:45";56
"28.03.2024 18:00";56
"28.03.2024 18:15";56
"28.03.2024 18:30";56
"28.03.2024 18:45";56
"28.03.2024 19:00";56
"28.03.2024 19:15";56
"28.03.2024 19:30";56
"28.03.2024 19:45";56
"28.03.2024 20:00";56
"28.03.2024 20:15";56
"28.03.2024 20:30";56
"28.03.2024 20:45";56
"28.03.2024 21:00";56
"28.03.2024 21:15";56
"28.03.2024 21:30";56
"28.03.2024 21:45";56
"28.03.2024 22:00";56
"28.03.2024 22:15";56
"28.03.2024 22:30";56
"28.03.2024 22:45";56
"28.03.2024 23:00";56
"28.03.2024 23:15";56
"28.03.2024 23:30";56
"28.03.2024 23:45";56
"29.03.2024 00:00";56
"29.03.2024 00:15";56
"29.03.2024 00:30";56
"29.03.2024 00:45";56
"29.03.2024 01:00";56
"29.03.2024 01:15";56
"29.03.2024 01:30";56
"29.03.2024 01:45";56
"29.03.2024 02:00";56
"29.03.2024 02:15";56
"29.03.2024 02:30";56
"29.03.2024 02:45";56
"29.03.2024 03:00";56
"29.03.2024 03:15";56
"29.03.2024 03:30";56
"29.03.2024 03:45";56
"29.03.2024 04:00";56
"29.03.2024 04:15";56
"29.03.2024 04:30";56
"29.03.2024 04:45";56
"29.03.2024 05:00";56
"29.03.2024 05:15";56
"29.03.2024 05:30";56
"29.03.2024 05:45";56
"29.03.2024 06:00";56
"29.03.2024 06:15";56
"29.03.2024 06:30";56
"29.03.2024 06:45";56
"29.03.2024 07:00";56
"29.03.2024 07:15";56
"29.03.2024 07:30";56
"29.03.2024 07:45";56
"29.03.2024 08:00";56
"29.03.2024 08:15";56
"29.03.2024 08:30";56
"29.03.2024 08:45";56
"29.03.2024 09:00";56
"29.03.2024 09:15";56
"29.03.2024 09:30";56
"29.03.2024 09:45";56
"29.03.2024 10:00";56
"29.03.2024 10:15";56
"29.03.2024 10:30";56
"29.03.2024 10:45";56
"29.03.2024 11:00";56
"29.03.2024 11:15";55
"29.03.2024 11:30";55
"29.03.2024 11:45";55
"29.03.2024 12:00";55
"29.03.2024 12:15";55
"29.03.2024 12:30";55
"29.03.2024 12:45";55
"29.03.2024 13:00";55
"29.03.2024 13:15";55
"29.03.2024 13:30";55
"29.03.2024 13:45";56
"29.03.2024 14:00";55
"29.03.2024 14:15";56
"29.03.2024 14:30";55
"29.03.2024 14:45";55
"29.03.2024 15:00";55
"29.03.2024 15:15";55
"29.03.2024 15:30";55
"29.03.2024 15:45";55
"29.03.2024 16:00";55
"29.03.2024 16:15";55
"29.03.2024 16:30";55
"29.03.2024 16:45";56
"29.03.2024 17:00";55
"29.03.2024 17:15";55
"29.03.2024 17:30";55
"29.03.2024 17:45";55
"29.03.2024 18:00";55
"29.03.2024 18:15";56
"29.03.2024 18:30";56
"29.03.2024 18:45";56
"29.03.2024 19:00";55
"29.03.2024 19:15";55
"29.03.2024 19:30";56
"29.03.2024 19:45";56
"29.03.2024 20:00";55
"29.03.2024 20:15";55
"29.03.2024 20:30";56
"29.03.2024 20:45";56
"29.03.2024 21:00";55
"29.03.2024 21:15";55
"29.03.2024 21:30";55
"29.03.2024 21:45";55
"29.03.2024 22:00";56
"29.03.2024 22:15";55
"29.03.2024 22:30";55
"29.03.2024 22:45";56
"29.03.2024 23:00";56
"29.03.2024 23:15";56
"29.03.2024 23:30";55
"29.03.2024 23:45";55
"30.03.2024 00:00";55
"30.03.2024 00:15";55
"30.03.2024 00:30";55
"30.03.2024 00:45";55
"30.03.2024 01:00";55
"30.03.2024 01:15";55
"30.03.2024 01:30";55
"30.03.2024 01:45";55
"30.03.2024 02:00";55
"30.03.2024 02:15";55
"30.03.2024 02:30";55
"30.03.2024 02:45";55
"30.03.2024 03:00";55
"30.03.2024 03:15";55
"30.03.2024 03:30";55
"30.03.2024 03:45";55
"30.03.2024 04:00";55
"30.03.2024 04:15";55
"30.03.2024 04:30";55
"30.03.2024 04:45";55
"30.03.2024 05:00";55
"30.03.2024 05:15";55
"30.03.2024 05:30";55
"30.03.2024 05:45";55
"30.03.2024 06:00";55
"30.03.2024 06:15";55
"30.03.2024 06:30";55
"30.03.2024 06:45";55
"30.03.2024 07:00";55
"30.03.2024 07:15";55
"30.03.2024 07:30";55
"30.03.2024 07:45";55
"30.03.2024 08:00";55
"30.03.2024 08:15";55
"30.03.2024 08:30";55
"30.03.2024 08:45";55
"30.03.2024 09:00";55
"30.03.2024 09:15";55
"30.03.2024 09:30";55
"30.03.2024 09:45";55
"30.03.2024 10:00";55
"30.03.2024 10:15";55
"30.03.2024 10:30";55
"30.03.2024 10:45";55
"30.03.2024 11:00";55
"30.03.2024 11:15";55
"30.03.2024 11:30";55
"30.03.2024 11:45";55
"30.03.2024 12:00";54
"30.03.2024 12:15";54
"30.03.2024 12:30";55
"30.03.2024 12:45";54
"30.03.2024 13:00";54
"30.03.2024 13:15";54
"30.03.2024 13:30";54
"30.03.2024 13:45";54
"30.03.2024 14:00";54
"30.03.2024 14:15";54
"30.03.2024 14:30";54
"30.03.2024 14:45";54
"30.03.2024 15:00";54
"30.03.2024 15:15";54
"30.03.2024 15:30";54
"30.03.2024 15:45";54
"30.03.2024 16:00";54
"30.03.2024 16:15";54
"30.03.2024 16:30";54
"30.03.2024 16:45";54
"30.03.2024 17:00";54
"30.03.2024 17:15";54
"30.03.2024 17:30";54
"30.03.2024 17:45";54
"30.03.2024 18:00";53
"30.03.2024 18:15";53
"30.03.2024 18:30";53
"30.03.2024 18:45";53
"30.03.2024 19:00";54
"30.03.2024 19:15";54
"30.03.2024 19:30";54
"30.03.2024 19:45";54
"30.03.2024 20:00";54
"30.03.2024 20:15";54
"30.03.2024 20:30";53
"30.03.2024 20:45";53
"30.03.2024 21:00";53
"30.03.2024 21:15";53
"30.03.2024 21:30";53
"30.03.2024 21:45";53
"30.03.2024 22:00";53
"30.03.2024 22:15";53
"30.03.2024 22:30";53
"30.03.2024 22:45";53
"30.03.2024 23:00";53
"30.03.2024 23:15";53
"30.03.2024 23:30";53
"30.03.2024 23:45";53
"31.03.2024 00:00";53
"31.03.2024 00:15";53
"31.03.2024 00:30";53
"31.03.2024 00:45";53
"31.03.2024 01:00";53
"31.03.2024 01:15";53
"31.03.2024 01:30";53
"31.03.2024 01:45";53
"31.03.2024 02:00";53
"31.03.2024 02:15";53
"31.03.2024 02:30";53
"31.03.2024 02:45";53
"31.03.2024 03:00";53
"31.03.2024 03:15";53
"31.03.2024 03:30";53
"31.03.2024 03:45";54
"31.03.2024 04:00";53
"31.03.2024 04:15";53
"31.03.2024 04:30";53
"31.03.2024 04:45";53
"31.03.2024 05:00";53
"31.03.2024 05:15";53
"31.03.2024 05:30";53
"31.03.2024 05:45";53
"31.03.2024 06:00";53
"31.03.2024 06:15";53
"31.03.2024 06:30";53
"31.03.2024 06:45";53
"31.03.2024 07:00";53
"31.03.2024 07:15";53
"31.03.2024 07:30";53
"31.03.2024 07:45";53
"31.03.2024 08:00";53
"31.03.2024 08:15";53
"31.03.2024 08:30";53
"31.03.2024 08:45";53
"31.03.2024 09:00";53
"31.03.2024 09:15";53
"31.03.2024 09:30";53
"31.03.2024 09:45";53
"31.03.2024 10:00";53
"31.03.2024 10:15";53
"31.03.2024 10:30";53
"31.03.2024 10:45";53
"31.03.2024 11:00";53
"31.03.2024 11:15";53
"31.03.2024 11:30";53
"31.03.2024 11:45";53
"31.03.2024 12:00";53
"31.03.2024 12:15";53
"31.03.2024 12:30";53
"31.03.2024 12:45";53
"31.03.2024 13:00";53
"31.03.2024 13:15";53
"31.03.2024 13:30";53
"31.03.2024 13:45";53
"31.03.2024 14:00";53
"31.03.2024 14:15";53
"31.03.2024 14:30";53
"31.03.2024 14:45";53
"31.03.2024 15:00";53
"31.03.2024 15:15";53
"31.03.2024 15:30";53
"31.03.2024 15:45";53
"31.03.2024 16:00";53
"31.03.2024 16:15";53
"31.03.2024 16:30";53
"31.03.2024 16:45";53
"31.03.2024 17:00";53
"31.03.2024 17:15";53
"31.03.2024 17:30";53
"31.03.2024 17:45";53
"31.03.2024 18:00";53
"31.03.2024 18:15";53
"31.03.2024 18:30";53
"31.03.2024 18:45";53
"31.03.2024 19:00";53
"31.03.2024 19:15";53
"31.03.2024 19:30";53
"31.03.2024 19:45";53
"31.03.2024 20:00";53
"31.03.2024 20:15";53
"31.03.2024 20:30";53
"31.03.2024 20:45";53
"31.03.2024 21:00";53
"31.03.2024 21:15";54
"31.03.2024 21:30";53
"31.03.2024 21:45";54
"31.03.2024 22:00";54
"31.03.2024 22:15";54
"31.03.2024 22:30";54
"31.03.2024 22:45";54
"31.03.2024 23:00";53
"31.03.2024 23:15";53
"31.03.2024 23:30";53
"31.03.2024 23:45";53
"01.04.2024 00:00";53
"01.04.2024 00:15";53
"01.04.2024 00:30";53
"01.04.2024 00:45";53
"01.04.2024 01:00";53
"01.04.2024 01:15";53
"01.04.2024 01:30";53
"01.04.2024 01:45";53
"01.04.2024 02:00";53
"01.04.2024 02:15";53
"01.04.2024 02:30";53
"01.04.2024 02:45";53
"01.04.2024 03:00";53
"01.04.2024 03:15";53
"01.04.2024 03:30";53
"01.04.2024 03:45";53
"01.04.2024 04:00";53
"01.04.2024 04:15";53
"01.04.2024 04:30";53
"01.04.2024 04:45";53
"01.04.2024 05:00";53
"01.04.2024 05:15";53
"01.04.2024 05:30";53
"01.04.2024 05:45";52
"01.04.2024 06:00";52
"01.04.2024 06:15";53
"01.04.2024 06:30";53
"01.04.2024 06:45";52
"01.04.2024 07:00";52
"01.04.2024 07:15";52
"01.04.2024 07:30";52
"01.04.2024 07:45";52
"01.04.2024 08:00";53
"01.04.2024 08:15";52
"01.04.2024 08:30";52
"01.04.2024 08:45";52
"01.04.2024 09:00";52
"01.04.2024 09:15";52
"01.04.2024 09:30";52
"01.04.2024 09:45";52
"01.04.2024 10:00";52
"01.04.2024 10:15";52
"01.04.2024 10:30";52
"01.04.2024 10:45";52
"01.04.2024 11:00";52
"01.04.2024 11:15";52
"01.04.2024 11:30";52
"01.04.2024 11:45";52
"01.04.2024 12:00";52
"01.04.2024 12:15";52
"01.04.2024 12:30";52
"01.04.2024 12:45";52
"01.04.2024 13:00";52
"01.04.2024 13:15";52
"01.04.2024 13:30";53
"01.04.2024 13:45";53
"01.04.2024 14:00";52
"01.04.2024 14:15";52
"01.04.2024 14:30";53
"01.04.2024 14:45";52
"01.04.2024 15:00";53
"01.04.2024 15:15";52
"01.04.2024 15:30";52
"01.04.2024 15:45";52
"01.04.2024 16:00";53
"01.04.2024 16:15";52
"01.04.2024 16:30";52
"01.04.2024 16:45";52
"01.04.2024 17:00";52
"01.04.2024 17:15";52
"01.04.2024 17:30";52
"01.04.2024 17:45";53
"01.04.2024 18:00";53
"01.04.2024 18:15";53
"01.04.2024 18:30";53
"01.04.2024 18:45";54
"01.04.2024 19:00";54
"01.04.2024 19:15";54
"01.04.2024 19:30";54
"01.04.2024 19:45";54
"01.04.2024 20:00";54
"01.04.2024 20:15";54
"01.04.2024 20:30";54
"01.04.2024 20:45";54
"01.04.2024 21:00";54
"01.04.2024 21:15";53
"01.04.2024 21:30";53
"01.04.2024 21:45";54
"01.04.2024 22:00";54
"01.04.2024 22:15";53
"01.04.2024 22:30";53
"01.04.2024 22:45";53
"01.04.2024 23:00";54
"01.04.2024 23:15";54
"01.04.2024 23:30";54
"01.04.2024 23:45";54
"02.04.2024 00:00";54
"02.04.2024 00:15";54
"02.04.2024 00:30";54
"02.04.2024 00:45";54
"02.04.2024 01:00";54
"02.04.2024 01:15";54
"02.04.2024 01:30";54
"02.04.2024 01:45";54
"02.04.2024 02:00";54
"02.04.2024 02:15";54
"02.04.2024 02:30";54
"02.04.2024 02:45";54
"02.04.2024 03:00";54
"02.04.2024 03:15";54
"02.04.2024 03:30";54
"02.04.2024 03:45";54
"02.04.2024 04:00";54
"02.04.2024 04:15";54
"02.04.2024 04:30";54
"02.04.2024 04:45";54
"02.04.2024 05:00";53
"02.04.2024 05:15";53
"02.04.2024 05:30";53
"02.04.2024 05:45";54
"02.04.2024 06:00";54
"02.04.2024 06:15";53
"02.04.2024 06:30";53
"02.04.2024 06:45";53
"02.04.2024 07:00";53
"02.04.2024 07:15";53
"02.04.2024 07:30";53
"02.04.2024 07:45";53
"02.04.2024 08:00";53
"02.04.2024 08:15";53
"02.04.2024 08:30";54
"02.04.2024 08:45";53
"02.04.2024 09:00";53
"02.04.2024 09:15";53
"02.04.2024 09:30";53
"02.04.2024 09:45";53
"02.04.2024 10:00";53
"02.04.2024 10:15";53
"02.04.2024 10:30";53
"02.04.2024 10:45";53
"02.04.2024 11:00";53
"02.04.2024 11:15";53
"02.04.2024 11:30";53
"02.04.2024 11:45";53
"02.04.2024 12:00";53
"02.04.2024 12:15";53
"02.04.2024 12:30";53
"02.04.2024 12:45";53
"02.04.2024 13:00";53
"02.04.2024 13:15";53
"02.04.2024 13:30";53
"02.04.2024 13:45";53
"02.04.2024 14:00";53
"02.04.2024 14:15";53
"02.04.2024 14:30";53
"02.04.2024 14:45";53
"02.04.2024 15:00";53
"02.04.2024 15:15";53
"02.04.2024 15:30";53
"02.04.2024 15:45";53
"02.04.2024 16:00";53
"02.04.2024 16:15";53
"02.04.2024 16:30";53
"02.04.2024 16:45";53
"02.04.2024 17:00";53
"02.04.2024 17:15";53
"02.04.2024 17:30";53
"02.04.2024 17:45";53
"02.04.2024 18:00";53
"02.04.2024 18:15";53
"02.04.2024 18:30";53
"02.04.2024 18:45";53
"02.04.2024 19:00";53
"02.04.2024 19:15";53
"02.04.2024 19:30";53
"02.04.2024 19:45";53
"02.04.2024 20:00";53
"02.04.2024 20:15";53
"02.04.2024 20:30";53
"02.04.2024 20:45";53
"02.04.2024 21:00";53
"02.04.2024 21:15";53
"02.04.2024 21:30";53
"02.04.2024 21:45";53
"02.04.2024 22:00";53
"02.04.2024 22:15";53
"02.04.2024 22:30";53
"02.04.2024 22:45";53
"02.04.2024 23:00";53
"02.04.2024 23:15";53
"02.04.2024 23:30";53
"02.04.2024 23:45";53
"03.04.2024 00:00";53
"03.04.2024 00:15";53
"03.04.2024 00:30";53
"03.04.2024 00:45";53
"03.04.2024 01:00";53
"03.04.2024 01:15";53
"03.04.2024 01:30";53
"03.04.2024 01:45";53
"03.04.2024 02:00";53
"03.04.2024 02:15";53
"03.04.2024 02:30";53
"03.04.2024 02:45";53
"03.04.2024 03:00";53
"03.04.2024 03:15";53
"03.04.2024 03:30";53
"03.04.2024 03:45";53
"03.04.2024 04:00";53
"03.04.2024 04:15";53
"03.04.2024 04:30";53
"03.04.2024 04:45";53
"03.04.2024 05:00";53
"03.04.2024 05:15";53
"03.04.2024 05:30";53
"03.04.2024 05:45";53
"03.04.2024 06:00";53
"03.04.2024 06:15";53
"03.04.2024 06:30";53
"03.04.2024 06:45";53
"03.04.2024 07:00";53
"03.04.2024 07:15";53
"03.04.2024 07:30";53
"03.04.2024 07:45";53
"03.04.2024 08:00";53
"03.04.2024 08:15";53
"03.04.2024 08:30";53
"03.04.2024 08:45";53
"03.04.2024 09:00";53
"03.04.2024 09:15";53
"03.04.2024 09:30";53
"03.04.2024 09:45";53
"03.04.2024 10:00";53
"03.04.2024 10:15";53
"03.04.2024 10:30";53
"03.04.2024 10:45";53
"03.04.2024 11:00";53
"03.04.2024 11:15";53
"03.04.2024 11:30";53
"03.04.2024 11:45";53
"03.04.2024 12:00";53
"03.04.2024 12:15";53
"03.04.2024 12:30";53
"03.04.2024 12:45";53
"03.04.2024 13:00";53
"03.04.2024 13:15";53
"03.04.2024 13:30";53
"03.04.2024 13:45";53
"03.04.2024 14:00";53
"03.04.2024 14:15";53
"03.04.2024 14:30";53
"03.04.2024 14:45";53
"03.04.2024 15:00";53
"03.04.2024 15:15";52
"03.04.2024 15:30";52
"03.04.2024 15:45";52
"03.04.2024 16:00";52
"03.04.2024 16:15";52
"03.04.2024 16:30";52
"03.04.2024 16:45";52
"03.04.2024 17:00";52
"03.04.2024 17:15";52
"03.04.2024 17:30";52
"03.04.2024 17:45";52
"03.04.2024 18:00";52
"03.04.2024 18:15";52
"03.04.2024 18:30";52
"03.04.2024 18:45";52
"03.04.2024 19:00";52
"03.04.2024 19:15";52
"03.04.2024 19:30";52
"03.04.2024 19:45";52
"03.04.2024 20:00";52
"03.04.2024 20:15";52
"03.04.2024 20:30";52
"03.04.2024 20:45";52
"03.04.2024 21:00";52
"03.04.2024 21:15";52
"03.04.2024 21:30";52
"03.04.2024 21:45";52
"03.04.2024 22:00";53
"03.04.2024 22:15";53
"03.04.2024 22:30";52
"03.04.2024 22:45";52
"03.04.2024 23:00";52
"03.04.2024 23:15";52
"03.04.2024 23:30";52
"03.04.2024 23:45";52
"04.04.2024 00:00";52
"04.04.2024 00:15";52
"04.04.2024 00:30";52
"04.04.2024 00:45";52
"04.04.2024 01:00";52
"04.04.2024 01:15";52
"04.04.2024 01:30";52
"04.04.2024 01:45";52
"04.04.2024 02:00";52
"04.04.2024 02:15";52
"04.04.2024 02:30";52
"04.04.2024 02:45";52
"04.04.2024 03:00";52
"04.04.2024 03:15";52
"04.04.2024 03:30";52
"04.04.2024 03:45";52
"04.04.2024 04:00";51
"04.04.2024 04:15";51
"04.04.2024 04:30";51
"04.04.2024 04:45";51
"04.04.2024 05:00";51
"04.04.2024 05:15";51
"04.04.2024 05:30";52
"04.04.2024 05:45";52
"04.04.2024 06:00";52
"04.04.2024 06:15";52
"04.04.2024 06:30";52
"04.04.2024 06:45";52
"04.04.2024 07:00";52
"04.04.2024 07:15";52
"04.04.2024 07:30";52
"04.04.2024 07:45";52
"04.04.2024 08:00";52
"04.04.2024 08:15";52
"04.04.2024 08:30";52
"04.04.2024 08:45";52
"04.04.2024 09:00";52
"04.04.2024 09:15";52
"04.04.2024 09:30";52
"04.04.2024 09:45";52
"04.04.2024 10:00";52
"04.04.2024 10:15";52
"04.04.2024 10:30";52
"04.04.2024 10:45";52
"04.04.2024 11:00";52
"04.04.2024 11:15";52
"04.04.2024 11:30";52
"04.04.2024 11:45";52
"04.04.2024 12:00";52
"04.04.2024 12:15";51
"04.04.2024 12:30";51
"04.04.2024 12:45";51
"04.04.2024 13:00";51
"04.04.2024 13:15";51
"04.04.2024 13:30";51
"04.04.2024 13:45";51
"04.04.2024 14:00";51
"04.04.2024 14:15";51
"04.04.2024 14:30";51
"04.04.2024 14:45";51
"04.04.2024 15:00";51
"04.04.2024 15:15";51
"04.04.2024 15:30";51
"04.04.2024 15:45";51
"04.04.2024 16:00";51
"04.04.2024 16:15";51
"04.04.2024 16:30";51
"04.04.2024 16:45";51
"04.04.2024 17:00";51
"04.04.2024 17:15";51
"04.04.2024 17:30";51
"04.04.2024 17:45";51
"04.04.2024 18:00";51
"04.04.2024 18:15";51
"04.04.2024 18:30";51
"04.04.2024 18:45";51
"04.04.2024 19:00";51
"04.04.2024 19:15";52
"04.04.2024 19:30";52
"04.04.2024 19:45";52
"04.04.2024 20:00";52
"04.04.2024 20:15";52
"04.04.2024 20:30";53
"04.04.2024 20:45";53
"04.04.2024 21:00";53
"04.04.2024 21:15";52
"04.04.2024 21:30";52
"04.04.2024 21:45";52
"04.04.2024 22:00";52
"04.04.2024 22:15";52
"04.04.2024 22:30";53
"04.04.2024 22:45";53
"04.04.2024 23:00";53
"04.04.2024 23:15";53
"04.04.2024 23:30";53
"04.04.2024 23:45";53
"05.04.2024 00:00";53
"05.04.2024 00:15";53
"05.04.2024 00:30";52
"05.04.2024 00:45";52
"05.04.2024 01:00";52
"05.04.2024 01:15";52
"05.04.2024 01:30";52
"05.04.2024 01:45";52
"05.04.2024 02:00";52
"05.04.2024 02:15";52
"05.04.2024 02:30";52
"05.04.2024 02:45";52
"05.04.2024 03:00";52
"05.04.2024 03:15";52
"05.04.2024 03:30";52
"05.04.2024 03:45";52
"05.04.2024 04:00";52
"05.04.2024 04:15";52
"05.04.2024 04:30";52
"05.04.2024 04:45";52
"05.04.2024 05:00";52
"05.04.2024 05:15";52
"05.04.2024 05:30";52
"05.04.2024 05:45";52
"05.04.2024 06:00";52
"05.04.2024 06:15";52
"05.04.2024 06:30";52
"05.04.2024 06:45";52
"05.04.2024 07:00";52